HAZ609 ZSHC-VMMC

Flight info

Callsign HAZ609
Flight time 1h 58m
Altitude 38100
Route ELNEX5E ELNEX A599 CON
Aircraft A20N/M-SDE2E3FGHIRWXY/LB1

Departure

Time 2026-04-23 02:41
Airport Hangzhou Xiaoshan International Airport (ZSHC)

Arrival

Time 2026-04-23 04:39
Airport Macau International Airport (VMMC)
Time Latitude Longitude Altitude Speed Heading
2026-04-23 02:32 30.23974 120.42523 29 ft 0 kts 240°
2026-04-23 02:33 30.23978 120.42534 29 ft 2 kts 250°
2026-04-23 02:33 30.23984 120.42550 29 ft 2 kts 265°
2026-04-23 02:33 30.23982 120.42568 29 ft 2 kts 289°
2026-04-23 02:34 30.23975 120.42584 29 ft 2 kts 315°
2026-04-23 02:34 30.23967 120.42590 29 ft 0 kts 331°
2026-04-23 02:34 30.23961 120.42593 29 ft 0 kts 334°
2026-04-23 02:36 30.23988 120.42578 29 ft 9 kts 334°
2026-04-23 02:36 30.24064 120.42534 29 ft 14 kts 332°
2026-04-23 02:36 30.24159 120.42485 29 ft 15 kts 349°
2026-04-23 02:36 30.24258 120.42441 29 ft 15 kts 328°
2026-04-23 02:37 30.24302 120.42347 29 ft 15 kts 245°
2026-04-23 02:37 30.24246 120.42230 29 ft 19 kts 243°
2026-04-23 02:37 30.24173 120.42060 29 ft 27 kts 243°
2026-04-23 02:37 30.24087 120.41862 29 ft 26 kts 245°
2026-04-23 02:38 30.24001 120.41675 29 ft 25 kts 242°
2026-04-23 02:38 30.23922 120.41491 29 ft 25 kts 243°
2026-04-23 02:38 30.23842 120.41313 29 ft 24 kts 242°
2026-04-23 02:38 30.23777 120.41157 29 ft 16 kts 244°
2026-04-23 02:39 30.23805 120.41083 29 ft 6 kts 334°
2026-04-23 02:39 30.23813 120.41078 29 ft 1 kts 334°
2026-04-23 02:39 30.23818 120.41076 29 ft 0 kts 334°
2026-04-23 02:39 30.23826 120.41071 29 ft 6 kts 334°
2026-04-23 02:40 30.23900 120.41042 29 ft 12 kts 10°
2026-04-23 02:40 30.23951 120.41125 29 ft 15 kts 63°
2026-04-23 02:40 30.24091 120.41438 29 ft 80 kts 63°
2026-04-23 02:40 30.24463 120.42286 29 ft 146 kts 62°
2026-04-23 02:41 30.24989 120.43457 314 ft 173 kts 61°
2026-04-23 02:41 30.25527 120.44684 1197 ft 166 kts 60°
2026-04-23 02:41 30.26033 120.45843 1961 ft 164 kts 59°
2026-04-23 02:41 30.26574 120.47058 2426 ft 179 kts 59°
2026-04-23 02:42 30.27171 120.48394 2879 ft 196 kts 59°
2026-04-23 02:42 30.27817 120.49844 3411 ft 210 kts 59°
2026-04-23 02:42 30.28509 120.51403 4018 ft 223 kts 59°
2026-04-23 02:42 30.29283 120.52963 4794 ft 227 kts 46°
2026-04-23 02:43 30.30620 120.53909 5304 ft 238 kts
2026-04-23 02:43 30.32296 120.53653 5826 ft 253 kts 331°
2026-04-23 02:43 30.33548 120.52214 6521 ft 265 kts 297°
2026-04-23 02:43 30.33916 120.50143 7383 ft 272 kts 264°
2026-04-23 02:44 30.33313 120.48052 8313 ft 276 kts 247°
2026-04-23 02:44 30.32545 120.46060 9204 ft 279 kts 247°
2026-04-23 02:44 30.31787 120.44025 10076 ft 281 kts 248°
2026-04-23 02:44 30.31029 120.41935 10839 ft 288 kts 248°
2026-04-23 02:45 30.30249 120.39751 11347 ft 303 kts 249°
2026-04-23 02:45 30.29416 120.37402 11774 ft 321 kts 248°
2026-04-23 02:45 30.28558 120.34978 12134 ft 338 kts 248°
2026-04-23 02:45 30.27660 120.32435 12663 ft 349 kts 248°
2026-04-23 02:46 30.26729 120.29806 13255 ft 356 kts 248°
2026-04-23 02:46 30.25773 120.27177 13643 ft 357 kts 246°
2026-04-23 02:46 30.24668 120.24551 14029 ft 363 kts 244°
2026-04-23 02:46 30.23526 120.21977 14815 ft 363 kts 244°
2026-04-23 02:47 30.22372 120.19386 15576 ft 364 kts 244°
2026-04-23 02:47 30.21227 120.16817 16207 ft 367 kts 244°
2026-04-23 02:47 30.20040 120.14153 16821 ft 370 kts 244°
2026-04-23 02:47 30.18865 120.11526 17412 ft 373 kts 244°
2026-04-23 02:48 30.17667 120.08855 17990 ft 376 kts 244°
2026-04-23 02:48 30.16448 120.06136 18598 ft 378 kts 244°
2026-04-23 02:48 30.15234 120.03429 19204 ft 380 kts 244°
2026-04-23 02:48 30.14024 120.00731 19814 ft 381 kts 244°
2026-04-23 02:49 30.12806 119.98015 20407 ft 382 kts 244°
2026-04-23 02:49 30.11577 119.95278 20849 ft 387 kts 245°
2026-04-23 02:49 30.10327 119.92493 21039 ft 398 kts 245°
2026-04-23 02:49 30.09042 119.89632 21222 ft 408 kts 245°
2026-04-23 02:50 30.07730 119.86720 21389 ft 417 kts 245°
2026-04-23 02:50 30.06378 119.83717 21636 ft 424 kts 245°
2026-04-23 02:50 30.04893 119.80779 22001 ft 428 kts 238°
2026-04-23 02:50 30.02963 119.78154 22487 ft 432 kts 229°
2026-04-23 02:51 30.00622 119.75900 23055 ft 435 kts 220°
2026-04-23 02:51 29.98012 119.74110 23697 ft 435 kts 215°
2026-04-23 02:51 29.95350 119.72462 24321 ft 432 kts 214°
2026-04-23 02:51 29.92702 119.70844 24765 ft 432 kts 214°
2026-04-23 02:52 29.90014 119.69208 24874 ft 439 kts 214°
2026-04-23 02:52 29.87301 119.67525 24983 ft 444 kts 216°
2026-04-23 02:52 29.84651 119.65720 25082 ft 447 kts 218°
2026-04-23 02:52 29.82040 119.63750 25206 ft 448 kts 220°
2026-04-23 02:53 29.79463 119.61737 25414 ft 450 kts 220°
2026-04-23 02:53 29.76857 119.59706 25680 ft 449 kts 220°
2026-04-23 02:53 29.74293 119.57712 26188 ft 442 kts 220°
2026-04-23 02:53 29.71777 119.55754 26829 ft 434 kts 220°
2026-04-23 02:54 29.69302 119.53826 27299 ft 430 kts 221°
2026-04-23 02:54 29.66849 119.51868 27624 ft 428 kts 223°
2026-04-23 02:54 29.64509 119.49777 27949 ft 424 kts 226°
2026-04-23 02:54 29.62314 119.47566 28358 ft 418 kts 229°
2026-04-23 02:55 29.60252 119.45234 28878 ft 411 kts 232°
2026-04-23 02:55 29.58350 119.42866 29382 ft 405 kts 233°
2026-04-23 02:55 29.56460 119.40478 29861 ft 401 kts 233°
2026-04-23 02:55 29.54592 119.38104 30045 ft 404 kts 233°
2026-04-23 02:56 29.52714 119.35716 30044 ft 404 kts 233°
2026-04-23 02:56 29.48946 119.30920 29867 ft 403 kts 233°
2026-04-23 02:56 29.47056 119.28519 29677 ft 404 kts 233°
2026-04-23 02:57 29.45165 119.26113 29421 ft 405 kts 233°
2026-04-23 02:57 29.43294 119.23732 29202 ft 406 kts 233°
2026-04-23 02:57 29.41386 119.21307 29003 ft 407 kts 233°
2026-04-23 02:57 29.39491 119.18906 28838 ft 408 kts 233°
2026-04-23 02:58 29.37576 119.16477 28692 ft 410 kts 233°
2026-04-23 02:58 29.33753 119.11640 28508 ft 410 kts 233°
2026-04-23 02:58 29.31844 119.09225 28250 ft 411 kts 233°
2026-04-23 02:59 29.29903 119.06776 27991 ft 412 kts 232°
2026-04-23 02:59 29.27985 119.04357 27750 ft 413 kts 233°
2026-04-23 02:59 29.26061 119.01929 27567 ft 414 kts 232°
2026-04-23 02:59 29.24111 118.99471 27556 ft 414 kts 232°
2026-04-23 03:00 29.22170 118.97033 27552 ft 414 kts 232°
2026-04-23 03:00 29.20222 118.94584 27556 ft 414 kts 232°
2026-04-23 03:00 29.18272 118.92134 27556 ft 414 kts 232°
2026-04-23 03:00 29.16347 118.89722 27551 ft 413 kts 232°
2026-04-23 03:01 29.14391 118.87268 27547 ft 413 kts 232°
2026-04-23 03:01 29.12474 118.84864 27555 ft 413 kts 232°
2026-04-23 03:01 29.10542 118.82444 27554 ft 413 kts 232°
2026-04-23 03:01 29.08581 118.79988 27553 ft 413 kts 232°
2026-04-23 03:02 29.06659 118.77583 27552 ft 413 kts 232°
2026-04-23 03:02 29.04726 118.75166 27550 ft 412 kts 232°
2026-04-23 03:02 29.02773 118.72723 27545 ft 412 kts 232°
2026-04-23 03:02 29.00843 118.70309 27552 ft 411 kts 232°
2026-04-23 03:03 28.98916 118.67905 27558 ft 411 kts 232°
2026-04-23 03:03 28.96974 118.65480 27560 ft 411 kts 232°
2026-04-23 03:03 28.95060 118.63093 27559 ft 410 kts 232°
2026-04-23 03:03 28.93127 118.60682 27561 ft 410 kts 232°
2026-04-23 03:04 28.91191 118.58271 27557 ft 410 kts 232°
2026-04-23 03:04 28.89271 118.55880 27559 ft 410 kts 232°
2026-04-23 03:04 28.87338 118.53472 27559 ft 411 kts 232°
2026-04-23 03:04 28.85390 118.51047 27559 ft 411 kts 232°
2026-04-23 03:05 28.83455 118.48643 27560 ft 411 kts 232°
2026-04-23 03:05 28.81526 118.46249 27559 ft 410 kts 232°
2026-04-23 03:05 28.79612 118.43868 27557 ft 410 kts 232°
2026-04-23 03:05 28.77664 118.41451 27557 ft 410 kts 232°
2026-04-23 03:06 28.75737 118.39063 27559 ft 411 kts 232°
2026-04-23 03:06 28.73791 118.36651 27555 ft 410 kts 232°
2026-04-23 03:06 28.71858 118.34255 27564 ft 410 kts 232°
2026-04-23 03:06 28.69913 118.31849 27565 ft 411 kts 232°
2026-04-23 03:07 28.67970 118.29449 27559 ft 411 kts 232°
2026-04-23 03:07 28.66055 118.27080 27557 ft 411 kts 232°
2026-04-23 03:07 28.64106 118.24670 27555 ft 411 kts 232°
2026-04-23 03:07 28.62173 118.22282 27559 ft 411 kts 232°
2026-04-23 03:08 28.60225 118.19878 27559 ft 411 kts 232°
2026-04-23 03:08 28.58290 118.17489 27561 ft 411 kts 232°
2026-04-23 03:08 28.56354 118.15104 27561 ft 411 kts 232°
2026-04-23 03:08 28.54412 118.12711 27571 ft 411 kts 232°
2026-04-23 03:09 28.52472 118.10323 27563 ft 411 kts 232°
2026-04-23 03:09 28.50548 118.07956 27569 ft 411 kts 232°
2026-04-23 03:09 28.48593 118.05548 27566 ft 411 kts 232°
2026-04-23 03:09 28.46666 118.03180 27567 ft 411 kts 232°
2026-04-23 03:10 28.44711 118.00777 27567 ft 411 kts 232°
2026-04-23 03:10 28.42770 117.98396 27569 ft 412 kts 232°
2026-04-23 03:10 28.40813 117.96010 27573 ft 413 kts 232°
2026-04-23 03:10 28.38836 117.93662 27570 ft 412 kts 231°
2026-04-23 03:11 28.36844 117.91314 27574 ft 413 kts 231°
2026-04-23 03:11 28.34844 117.88963 27570 ft 413 kts 231°
2026-04-23 03:11 28.32856 117.86621 27566 ft 413 kts 231°
2026-04-23 03:11 28.30869 117.84276 27568 ft 412 kts 231°
2026-04-23 03:12 28.28889 117.81946 27570 ft 412 kts 231°
2026-04-23 03:12 28.26903 117.79607 27569 ft 412 kts 231°
2026-04-23 03:12 28.24919 117.77271 27565 ft 412 kts 231°
2026-04-23 03:12 28.22948 117.74950 27570 ft 412 kts 231°
2026-04-23 03:13 28.20950 117.72596 27570 ft 412 kts 231°
2026-04-23 03:13 28.18969 117.70269 27569 ft 413 kts 231°
2026-04-23 03:13 28.16979 117.67928 27571 ft 412 kts 231°
2026-04-23 03:13 28.14981 117.65585 27572 ft 413 kts 231°
2026-04-23 03:14 28.13002 117.63258 27570 ft 413 kts 231°
2026-04-23 03:14 28.10985 117.60893 27566 ft 414 kts 231°
2026-04-23 03:14 28.08993 117.58556 27566 ft 413 kts 231°
2026-04-23 03:14 28.07006 117.56226 27565 ft 414 kts 231°
2026-04-23 03:15 28.05001 117.53874 27567 ft 414 kts 231°
2026-04-23 03:15 28.02996 117.51531 27564 ft 414 kts 231°
2026-04-23 03:15 28.01000 117.49196 27568 ft 414 kts 231°
2026-04-23 03:15 27.99002 117.46860 27570 ft 414 kts 231°
2026-04-23 03:16 27.96982 117.44498 27573 ft 414 kts 231°
2026-04-23 03:16 27.94999 117.42179 27575 ft 413 kts 231°
2026-04-23 03:16 27.90978 117.37489 27571 ft 414 kts 231°
2026-04-23 03:17 27.88984 117.35159 27569 ft 413 kts 231°
2026-04-23 03:17 27.86978 117.32820 27577 ft 413 kts 230°
2026-04-23 03:17 27.84982 117.30497 27564 ft 413 kts 230°
2026-04-23 03:17 27.82956 117.28136 27564 ft 414 kts 231°
2026-04-23 03:18 27.80965 117.25817 27565 ft 414 kts 230°
2026-04-23 03:18 27.78965 117.23492 27552 ft 415 kts 231°
2026-04-23 03:18 27.76960 117.21159 27565 ft 414 kts 231°
2026-04-23 03:18 27.74936 117.18807 27558 ft 414 kts 231°
2026-04-23 03:19 27.72958 117.16512 27555 ft 414 kts 230°
2026-04-23 03:19 27.70954 117.14185 27565 ft 414 kts 230°
2026-04-23 03:19 27.68925 117.11834 27569 ft 414 kts 231°
2026-04-23 03:19 27.66925 117.09516 27561 ft 414 kts 231°
2026-04-23 03:20 27.64931 117.07205 27557 ft 415 kts 230°
2026-04-23 03:20 27.62909 117.04859 27571 ft 414 kts 231°
2026-04-23 03:20 27.60891 117.02525 27563 ft 414 kts 231°
2026-04-23 03:20 27.58882 117.00198 27563 ft 414 kts 231°
2026-04-23 03:21 27.56889 116.97894 27566 ft 414 kts 231°
2026-04-23 03:21 27.54877 116.95566 27560 ft 414 kts 230°
2026-04-23 03:21 27.52867 116.93246 27562 ft 414 kts 230°
2026-04-23 03:21 27.50871 116.90933 27562 ft 414 kts 231°
2026-04-23 03:22 27.48857 116.88580 27569 ft 414 kts 231°
2026-04-23 03:22 27.46870 116.86250 27567 ft 414 kts 231°
2026-04-23 03:22 27.44864 116.83904 27569 ft 415 kts 231°
2026-04-23 03:22 27.42888 116.81591 27565 ft 415 kts 231°
2026-04-23 03:23 27.40874 116.79234 27570 ft 414 kts 231°
2026-04-23 03:23 27.38864 116.76884 27567 ft 415 kts 231°
2026-04-23 03:23 27.36880 116.74565 27575 ft 415 kts 231°
2026-04-23 03:23 27.34875 116.72222 27573 ft 414 kts 231°
2026-04-23 03:24 27.32880 116.69895 27573 ft 415 kts 231°
2026-04-23 03:24 27.30894 116.67577 27569 ft 414 kts 231°
2026-04-23 03:24 27.28890 116.65244 27567 ft 415 kts 231°
2026-04-23 03:24 27.26886 116.62907 27570 ft 414 kts 231°
2026-04-23 03:25 27.24892 116.60586 27574 ft 413 kts 231°
2026-04-23 03:25 27.22887 116.58259 27569 ft 414 kts 231°
2026-04-23 03:25 27.20889 116.55936 27575 ft 414 kts 231°
2026-04-23 03:25 27.18913 116.53581 27575 ft 414 kts 232°
2026-04-23 03:26 27.16973 116.51226 27578 ft 413 kts 232°
2026-04-23 03:26 27.15033 116.48866 27571 ft 413 kts 232°
2026-04-23 03:26 27.13064 116.46475 27571 ft 413 kts 232°
2026-04-23 03:26 27.11119 116.44114 27574 ft 413 kts 232°
2026-04-23 03:27 27.09171 116.41756 27575 ft 413 kts 232°
2026-04-23 03:27 27.07226 116.39403 27577 ft 413 kts 232°
2026-04-23 03:27 27.05265 116.37030 27574 ft 413 kts 232°
2026-04-23 03:27 27.03308 116.34665 27575 ft 412 kts 232°
2026-04-23 03:28 27.01360 116.32314 27573 ft 413 kts 232°
2026-04-23 03:28 26.99407 116.29959 27576 ft 413 kts 232°
2026-04-23 03:28 26.97448 116.27592 27576 ft 413 kts 231°
2026-04-23 03:28 26.95549 116.25304 27578 ft 413 kts 232°
2026-04-23 03:29 26.93562 116.22912 27574 ft 414 kts 232°
2026-04-23 03:29 26.91615 116.20566 27577 ft 414 kts 232°
2026-04-23 03:29 26.89655 116.18186 27580 ft 414 kts 232°
2026-04-23 03:29 26.87700 116.15803 27576 ft 414 kts 232°
2026-04-23 03:30 26.85778 116.13460 27578 ft 414 kts 232°
2026-04-23 03:30 26.83826 116.11087 27579 ft 414 kts 232°
2026-04-23 03:30 26.81863 116.08700 27574 ft 415 kts 232°
2026-04-23 03:30 26.79924 116.06338 27569 ft 415 kts 232°
2026-04-23 03:31 26.77953 116.03941 27571 ft 415 kts 231°
2026-04-23 03:31 26.76012 116.01588 27573 ft 415 kts 232°
2026-04-23 03:31 26.74056 115.99214 27573 ft 415 kts 232°
2026-04-23 03:31 26.72084 115.96825 27575 ft 416 kts 232°
2026-04-23 03:32 26.70138 115.94466 27578 ft 415 kts 231°
2026-04-23 03:32 26.68164 115.92071 27580 ft 415 kts 231°
2026-04-23 03:32 26.66225 115.89728 27577 ft 415 kts 232°
2026-04-23 03:32 26.64255 115.87341 27572 ft 415 kts 231°
2026-04-23 03:33 26.62309 115.84986 27578 ft 416 kts 231°
2026-04-23 03:33 26.60321 115.82583 27574 ft 416 kts 232°
2026-04-23 03:33 26.58371 115.80227 27573 ft 416 kts 231°
2026-04-23 03:33 26.56393 115.77837 27574 ft 416 kts 231°
2026-04-23 03:34 26.54445 115.75486 27574 ft 416 kts 232°
2026-04-23 03:34 26.52498 115.73134 27571 ft 416 kts 231°
2026-04-23 03:34 26.50506 115.70732 27568 ft 416 kts 231°
2026-04-23 03:34 26.48560 115.68389 27572 ft 417 kts 231°
2026-04-23 03:35 26.46573 115.65997 27579 ft 417 kts 231°
2026-04-23 03:35 26.44599 115.63626 27573 ft 417 kts 231°
2026-04-23 03:35 26.42625 115.61247 27574 ft 417 kts 231°
2026-04-23 03:35 26.40663 115.58888 27578 ft 418 kts 232°
2026-04-23 03:36 26.38679 115.56503 27578 ft 417 kts 231°
2026-04-23 03:36 26.36702 115.54129 27576 ft 418 kts 231°
2026-04-23 03:36 26.34726 115.51756 27574 ft 418 kts 231°
2026-04-23 03:36 26.32754 115.49390 27580 ft 417 kts 231°
2026-04-23 03:37 26.30778 115.47026 27581 ft 418 kts 231°
2026-04-23 03:37 26.28794 115.44648 27578 ft 418 kts 231°
2026-04-23 03:37 26.26828 115.42291 27581 ft 417 kts 231°
2026-04-23 03:37 26.24870 115.39943 27579 ft 417 kts 231°
2026-04-23 03:38 26.22890 115.37573 27579 ft 417 kts 231°
2026-04-23 03:38 26.20905 115.35197 27577 ft 417 kts 231°
2026-04-23 03:38 26.18910 115.32818 27574 ft 419 kts 231°
2026-04-23 03:38 26.16929 115.30450 27572 ft 419 kts 231°
2026-04-23 03:39 26.14955 115.28092 27565 ft 419 kts 231°
2026-04-23 03:39 26.12980 115.25735 27562 ft 420 kts 231°
2026-04-23 03:39 26.10973 115.23341 27567 ft 420 kts 231°
2026-04-23 03:39 26.09000 115.20985 27563 ft 420 kts 231°
2026-04-23 03:40 26.07002 115.18606 27560 ft 419 kts 231°
2026-04-23 03:40 26.05007 115.16229 27557 ft 420 kts 231°
2026-04-23 03:40 26.03026 115.13869 27562 ft 420 kts 231°
2026-04-23 03:40 26.01021 115.11487 27562 ft 419 kts 231°
2026-04-23 03:41 25.99026 115.09116 27561 ft 419 kts 231°
2026-04-23 03:41 25.97042 115.06756 27561 ft 420 kts 231°
2026-04-23 03:41 25.95038 115.04376 27564 ft 419 kts 231°
2026-04-23 03:41 25.93066 115.02031 27556 ft 419 kts 231°
2026-04-23 03:42 25.91064 114.99657 27560 ft 420 kts 231°
2026-04-23 03:42 25.89071 114.97293 27560 ft 420 kts 231°
2026-04-23 03:42 25.87077 114.94929 27558 ft 420 kts 230°
2026-04-23 03:42 25.85065 114.92544 27565 ft 420 kts 231°
2026-04-23 03:43 25.83040 114.90213 27561 ft 421 kts 229°
2026-04-23 03:43 25.80920 114.87976 27556 ft 423 kts 226°
2026-04-23 03:43 25.78690 114.85830 27558 ft 425 kts 224°
2026-04-23 03:43 25.76363 114.83781 27560 ft 427 kts 222°
2026-04-23 03:44 25.74003 114.81774 27564 ft 428 kts 223°
2026-04-23 03:44 25.71660 114.79778 27564 ft 429 kts 222°
2026-04-23 03:44 25.69271 114.77743 27559 ft 429 kts 222°
2026-04-23 03:44 25.66931 114.75751 27560 ft 429 kts 222°
2026-04-23 03:45 25.64533 114.73719 27563 ft 430 kts 223°
2026-04-23 03:45 25.62173 114.71721 27554 ft 430 kts 222°
2026-04-23 03:45 25.59792 114.69701 27558 ft 431 kts 222°
2026-04-23 03:45 25.57404 114.67683 27564 ft 431 kts 222°
2026-04-23 03:46 25.55023 114.65668 27559 ft 431 kts 222°
2026-04-23 03:46 25.52625 114.63641 27556 ft 432 kts 222°
2026-04-23 03:46 25.50226 114.61614 27561 ft 433 kts 222°
2026-04-23 03:46 25.47852 114.59610 27561 ft 432 kts 222°
2026-04-23 03:47 25.45444 114.57579 27563 ft 433 kts 222°
2026-04-23 03:47 25.43055 114.55564 27563 ft 432 kts 222°
2026-04-23 03:47 25.40680 114.53561 27560 ft 432 kts 222°
2026-04-23 03:47 25.38287 114.51545 27555 ft 432 kts 222°
2026-04-23 03:48 25.35889 114.49525 27562 ft 433 kts 222°
2026-04-23 03:48 25.33508 114.47522 27563 ft 433 kts 222°
2026-04-23 03:48 25.31093 114.45489 27563 ft 433 kts 222°
2026-04-23 03:48 25.28712 114.43487 27559 ft 433 kts 222°
2026-04-23 03:49 25.26294 114.41453 27562 ft 434 kts 222°
2026-04-23 03:49 25.23888 114.39434 27559 ft 434 kts 222°
2026-04-23 03:49 25.21506 114.37432 27562 ft 435 kts 222°
2026-04-23 03:49 25.19105 114.35414 27564 ft 435 kts 222°
2026-04-23 03:50 25.16672 114.33375 27561 ft 437 kts 222°
2026-04-23 03:50 25.14225 114.31324 27566 ft 438 kts 222°
2026-04-23 03:50 25.11716 114.29444 27567 ft 442 kts 216°
2026-04-23 03:50 25.08960 114.27905 27566 ft 447 kts 209°
2026-04-23 03:51 25.05986 114.26727 27563 ft 454 kts 202°
2026-04-23 03:51 25.02923 114.25929 27563 ft 459 kts 199°
2026-04-23 03:51 24.99758 114.25217 27560 ft 460 kts 198°
2026-04-23 03:51 24.96641 114.24537 27564 ft 460 kts 198°
2026-04-23 03:52 24.93473 114.23852 27562 ft 460 kts 198°
2026-04-23 03:52 24.90382 114.23182 27562 ft 459 kts 198°
2026-04-23 03:52 24.87346 114.22525 27559 ft 460 kts 198°
2026-04-23 03:52 24.84121 114.21825 27559 ft 461 kts 198°
2026-04-23 03:53 24.80953 114.21136 27553 ft 462 kts 198°
2026-04-23 03:53 24.77807 114.20452 27558 ft 463 kts 198°
2026-04-23 03:53 24.74598 114.19756 27560 ft 463 kts 198°
2026-04-23 03:53 24.71468 114.19076 27556 ft 463 kts 198°
2026-04-23 03:54 24.68313 114.18392 27558 ft 464 kts 198°
2026-04-23 03:54 24.65153 114.17706 27554 ft 465 kts 198°
2026-04-23 03:54 24.61966 114.17016 27554 ft 465 kts 198°
2026-04-23 03:54 24.58812 114.16333 27553 ft 466 kts 198°
2026-04-23 03:55 24.55595 114.15636 27547 ft 465 kts 198°
2026-04-23 03:55 24.52460 114.14957 27547 ft 466 kts 198°
2026-04-23 03:55 24.49339 114.14281 27544 ft 466 kts 197°
2026-04-23 03:55 24.46157 114.13594 27546 ft 467 kts 197°
2026-04-23 03:56 24.42965 114.12904 27543 ft 467 kts 198°
2026-04-23 03:56 24.39818 114.12215 27540 ft 466 kts 199°
2026-04-23 03:56 24.36737 114.11293 27539 ft 462 kts 204°
2026-04-23 03:56 24.33761 114.10053 27539 ft 457 kts 209°
2026-04-23 03:57 24.30938 114.08514 27540 ft 454 kts 214°
2026-04-23 03:57 24.28239 114.06780 27537 ft 453 kts 216°
2026-04-23 03:57 24.25570 114.04967 27534 ft 452 kts 218°
2026-04-23 03:57 24.22930 114.03115 27532 ft 452 kts 218°
2026-04-23 03:58 24.20330 114.01286 27533 ft 452 kts 218°
2026-04-23 03:58 24.17699 113.99442 27532 ft 452 kts 218°
2026-04-23 03:58 24.15046 113.97594 27355 ft 446 kts 218°
2026-04-23 03:58 24.12451 113.95795 27110 ft 436 kts 217°
2026-04-23 03:59 24.09888 113.94016 26866 ft 436 kts 217°
2026-04-23 03:59 24.07329 113.92239 26619 ft 437 kts 218°
2026-04-23 03:59 24.04772 113.90463 26299 ft 439 kts 217°
2026-04-23 03:59 24.02189 113.88667 25493 ft 442 kts 217°
2026-04-23 04:00 23.99614 113.86880 24679 ft 439 kts 217°
2026-04-23 04:00 23.97055 113.85104 24049 ft 433 kts 217°
2026-04-23 04:00 23.94519 113.83350 23407 ft 429 kts 217°
2026-04-23 04:00 23.91998 113.81603 22765 ft 425 kts 217°
2026-04-23 04:01 23.89541 113.79903 22134 ft 422 kts 217°
2026-04-23 04:01 23.87049 113.78178 21483 ft 420 kts 217°
2026-04-23 04:01 23.84570 113.76462 20832 ft 417 kts 216°
2026-04-23 04:01 23.82110 113.74759 20150 ft 415 kts 216°
2026-04-23 04:02 23.79684 113.73082 19481 ft 412 kts 216°
2026-04-23 04:02 23.77270 113.71414 18821 ft 410 kts 216°
2026-04-23 04:02 23.74896 113.69775 18161 ft 408 kts 216°
2026-04-23 04:02 23.72482 113.68107 17486 ft 405 kts 216°
2026-04-23 04:03 23.70098 113.66463 16843 ft 402 kts 216°
2026-04-23 04:03 23.67752 113.64844 16186 ft 398 kts 216°
2026-04-23 04:03 23.65443 113.63253 15584 ft 393 kts 216°
2026-04-23 04:03 23.63123 113.61655 15577 ft 390 kts 217°
2026-04-23 04:04 23.60771 113.60098 15645 ft 394 kts 212°
2026-04-23 04:04 23.58226 113.58917 15679 ft 400 kts 203°
2026-04-23 04:04 23.55506 113.58187 15693 ft 404 kts 194°
2026-04-23 04:04 23.52721 113.57740 15702 ft 406 kts 192°
2026-04-23 04:05 23.49876 113.57330 15710 ft 406 kts 192°
2026-04-23 04:05 23.47098 113.56936 15704 ft 406 kts 192°
2026-04-23 04:05 23.44264 113.56531 15706 ft 406 kts 192°
2026-04-23 04:05 23.41429 113.56121 15715 ft 406 kts 192°
2026-04-23 04:06 23.38638 113.55716 15712 ft 406 kts 192°
2026-04-23 04:06 23.35834 113.55306 15678 ft 404 kts 192°
2026-04-23 04:06 23.33067 113.54906 15325 ft 400 kts 193°
2026-04-23 04:06 23.30293 113.54500 14404 ft 405 kts 193°
2026-04-23 04:07 23.27471 113.54084 13438 ft 408 kts 192°
2026-04-23 04:07 23.24716 113.53683 13137 ft 394 kts 192°
2026-04-23 04:07 23.22004 113.53288 12977 ft 392 kts 193°
2026-04-23 04:07 23.19294 113.52892 12427 ft 388 kts 192°
2026-04-23 04:08 23.16640 113.52502 11852 ft 383 kts 192°
2026-04-23 04:08 23.14005 113.52117 11279 ft 379 kts 192°
2026-04-23 04:08 23.11406 113.51736 10859 ft 374 kts 192°
2026-04-23 04:08 23.08825 113.51360 10694 ft 374 kts 192°
2026-04-23 04:09 23.06222 113.50979 10689 ft 375 kts 192°
2026-04-23 04:09 23.03625 113.50600 10683 ft 375 kts 192°
2026-04-23 04:09 23.01041 113.50224 10685 ft 374 kts 192°
2026-04-23 04:09 22.98463 113.49847 10673 ft 375 kts 192°
2026-04-23 04:10 22.95865 113.49468 10665 ft 375 kts 192°
2026-04-23 04:10 22.93268 113.49091 10668 ft 375 kts 192°
2026-04-23 04:10 22.90669 113.48721 10664 ft 375 kts 190°
2026-04-23 04:10 22.88037 113.48623 10653 ft 373 kts 182°
2026-04-23 04:11 22.85515 113.48924 10653 ft 356 kts 175°
2026-04-23 04:11 22.83129 113.49431 10454 ft 344 kts 173°
2026-04-23 04:11 22.80816 113.49960 10262 ft 332 kts 173°
2026-04-23 04:11 22.78598 113.50473 10102 ft 319 kts 173°
2026-04-23 04:12 22.76447 113.50966 9962 ft 305 kts 174°
2026-04-23 04:12 22.74384 113.51435 9887 ft 290 kts 174°
2026-04-23 04:12 22.72419 113.51876 9597 ft 287 kts 174°
2026-04-23 04:12 22.70462 113.52309 9219 ft 285 kts 174°
2026-04-23 04:13 22.68537 113.52736 8867 ft 283 kts 174°
2026-04-23 04:13 22.66627 113.53164 8556 ft 274 kts 174°
2026-04-23 04:13 22.64788 113.53580 8215 ft 261 kts 173°
2026-04-23 04:13 22.63035 113.53973 7889 ft 249 kts 174°
2026-04-23 04:14 22.61329 113.54354 7576 ft 247 kts 174°
2026-04-23 04:14 22.59661 113.54724 7312 ft 242 kts 174°
2026-04-23 04:14 22.58017 113.55090 7084 ft 236 kts 174°
2026-04-23 04:14 22.56424 113.55449 7000 ft 224 kts 174°
2026-04-23 04:15 22.54912 113.55787 6942 ft 220 kts 174°
2026-04-23 04:15 22.53396 113.56131 6917 ft 221 kts 172°
2026-04-23 04:15 22.50391 113.57063 6528 ft 224 kts 168°
2026-04-23 04:16 22.48894 113.57550 6275 ft 221 kts 169°
2026-04-23 04:16 22.47416 113.58031 5982 ft 220 kts 168°
2026-04-23 04:16 22.45939 113.58511 5716 ft 219 kts 168°
2026-04-23 04:16 22.44476 113.58988 5440 ft 218 kts 168°
2026-04-23 04:17 22.43020 113.59463 5181 ft 217 kts 168°
2026-04-23 04:17 22.41579 113.59931 4927 ft 217 kts 167°
2026-04-23 04:17 22.40112 113.60407 4658 ft 216 kts 167°
2026-04-23 04:17 22.38667 113.60876 4402 ft 216 kts 167°
2026-04-23 04:18 22.37220 113.61346 4165 ft 215 kts 167°
2026-04-23 04:18 22.35788 113.61808 3938 ft 215 kts 167°
2026-04-23 04:18 22.34357 113.62259 3716 ft 214 kts 167°
2026-04-23 04:18 22.32916 113.62711 3492 ft 213 kts 167°
2026-04-23 04:19 22.31505 113.63154 3282 ft 212 kts 167°
2026-04-23 04:19 22.30074 113.63602 3068 ft 212 kts 167°
2026-04-23 04:19 22.28653 113.64021 2860 ft 211 kts 174°
2026-04-23 04:19 22.27207 113.63995 2664 ft 205 kts 197°
2026-04-23 04:20 22.25887 113.63390 2498 ft 201 kts 218°
2026-04-23 04:20 22.24885 113.62362 2359 ft 199 kts 233°
2026-04-23 04:20 22.24045 113.61184 2176 ft 195 kts 234°
2026-04-23 04:20 22.23235 113.60018 1966 ft 191 kts 234°
2026-04-23 04:21 22.22441 113.58883 1809 ft 185 kts 234°
2026-04-23 04:21 22.21599 113.57899 1813 ft 177 kts 217°
2026-04-23 04:21 22.20419 113.57418 1849 ft 183 kts 191°
2026-04-23 04:21 22.19200 113.57549 1785 ft 168 kts 168°
2026-04-23 04:22 22.18150 113.57924 1770 ft 153 kts 167°
2026-04-23 04:22 22.17113 113.58318 1804 ft 165 kts 166°
2026-04-23 04:22 22.15945 113.58752 1817 ft 185 kts 166°
2026-04-23 04:22 22.14714 113.59208 1801 ft 187 kts 165°
2026-04-23 04:23 22.13508 113.59789 1800 ft 189 kts 160°
2026-04-23 04:23 22.12306 113.60352 1796 ft 187 kts 161°
2026-04-23 04:23 22.11095 113.60899 1793 ft 187 kts 162°
2026-04-23 04:23 22.09885 113.61443 1793 ft 187 kts 162°
2026-04-23 04:24 22.08747 113.62158 1778 ft 193 kts 137°
2026-04-23 04:24 22.08179 113.63469 1779 ft 200 kts 97°
2026-04-23 04:24 22.08478 113.64925 1786 ft 204 kts 57°
2026-04-23 04:24 22.09578 113.65928 1809 ft 214 kts 19°
2026-04-23 04:25 22.11050 113.66097 1816 ft 213 kts 350°
2026-04-23 04:25 22.12513 113.65856 1807 ft 212 kts 343°
2026-04-23 04:25 22.13921 113.65400 1801 ft 209 kts 337°
2026-04-23 04:25 22.15308 113.64878 1795 ft 209 kts 336°
2026-04-23 04:26 22.16695 113.64346 1794 ft 208 kts 336°
2026-04-23 04:26 22.18059 113.63821 1793 ft 207 kts 336°
2026-04-23 04:26 22.19417 113.63294 1794 ft 207 kts 336°
2026-04-23 04:26 22.20787 113.62763 1793 ft 208 kts 336°
2026-04-23 04:27 22.22174 113.62225 1793 ft 209 kts 336°
2026-04-23 04:27 22.23545 113.61695 1793 ft 209 kts 336°
2026-04-23 04:27 22.24930 113.61159 1793 ft 209 kts 336°
2026-04-23 04:28 22.27691 113.60094 1793 ft 208 kts 336°
2026-04-23 04:28 22.29072 113.59557 1697 ft 204 kts 336°
2026-04-23 04:28 22.30326 113.58947 1556 ft 188 kts 315°
2026-04-23 04:28 22.30720 113.57781 1538 ft 156 kts 253°
2026-04-23 04:29 22.30015 113.57072 1478 ft 143 kts 190°
2026-04-23 04:29 22.29066 113.57421 1223 ft 148 kts 152°
2026-04-23 04:29 22.28242 113.58005 999 ft 136 kts 158°
2026-04-23 04:29 22.27373 113.58383 697 ft 130 kts 169°
2026-04-23 04:30 22.26504 113.58618 371 ft 127 kts 171°
2026-04-23 04:30 22.25640 113.58888 228 ft 136 kts 166°
2026-04-23 04:30 22.24706 113.59268 641 ft 150 kts 160°
2026-04-23 04:30 22.23688 113.59799 1030 ft 174 kts 166°
2026-04-23 04:31 22.22475 113.59882 1534 ft 173 kts 202°
2026-04-23 04:31 22.21558 113.59216 1548 ft 149 kts 222°
2026-04-23 04:31 22.20755 113.58587 1395 ft 132 kts 213°
2026-04-23 04:31 22.19929 113.58183 1086 ft 130 kts 208°
2026-04-23 04:32 22.19079 113.57882 748 ft 128 kts 184°
2026-04-23 04:32 22.18206 113.58056 463 ft 124 kts 172°
2026-04-23 04:32 22.17338 113.58297 278 ft 124 kts 168°
2026-04-23 04:32 22.16515 113.58570 119 ft 127 kts 165°
2026-04-23 04:33 22.15702 113.58867 37 ft 118 kts 165°
2026-04-23 04:33 22.14850 113.59200 299 ft 138 kts 165°
2026-04-23 04:33 22.13845 113.59568 535 ft 163 kts 162°
2026-04-23 04:33 22.12844 113.60254 957 ft 186 kts 133°
2026-04-23 04:34 22.12544 113.61672 1478 ft 208 kts 77°
2026-04-23 04:34 22.13384 113.62905 1854 ft 212 kts 36°
2026-04-23 04:34 22.14597 113.63846 1703 ft 215 kts 27°
2026-04-23 04:34 22.15984 113.64337 1403 ft 208 kts
2026-04-23 04:35 22.17482 113.64378 1617 ft 220 kts 353°
2026-04-23 04:35 22.18961 113.64066 2038 ft 209 kts 338°
2026-04-23 04:35 22.20229 113.63483 2263 ft 187 kts 329°
2026-04-23 04:35 22.21315 113.62758 2156 ft 177 kts 316°
2026-04-23 04:36 22.22156 113.61849 2015 ft 163 kts 303°
2026-04-23 04:36 22.22647 113.60808 1862 ft 145 kts 280°
2026-04-23 04:36 22.22699 113.59792 1691 ft 128 kts 260°
2026-04-23 04:36 22.22371 113.58895 1526 ft 127 kts 236°
2026-04-23 04:37 22.21755 113.58216 1406 ft 127 kts 220°
2026-04-23 04:37 22.20954 113.57748 1297 ft 135 kts 200°
2026-04-23 04:37 22.20023 113.57610 1134 ft 133 kts 185°
2026-04-23 04:37 22.19123 113.57748 850 ft 129 kts 172°
2026-04-23 04:38 22.18250 113.57991 501 ft 129 kts 169°
2026-04-23 04:38 22.17408 113.58269 293 ft 123 kts 166°
2026-04-23 04:38 22.16593 113.58539 117 ft 117 kts 167°
2026-04-23 04:38 22.15814 113.58823 16 ft 111 kts 165°
2026-04-23 04:39 22.15228 113.59027 15 ft 62 kts 161°
2026-04-23 04:39 22.14958 113.59129 16 ft 31 kts 160°
2026-04-23 04:39 22.14759 113.59204 16 ft 28 kts 159°
2026-04-23 04:39 22.14629 113.59238 17 ft 15 kts 202°
2026-04-23 04:40 22.14577 113.59145 16 ft 15 kts 254°
2026-04-23 04:40 22.14630 113.59067 16 ft 15 kts 343°
2026-04-23 04:40 22.14732 113.59026 16 ft 15 kts 321°
2026-04-23 04:40 22.14795 113.58926 15 ft 16 kts 304°
2026-04-23 04:41 22.14861 113.58820 14 ft 17 kts 303°
2026-04-23 04:41 22.14930 113.58707 13 ft 18 kts 303°
2026-04-23 04:41 22.15001 113.58591 12 ft 18 kts 304°
2026-04-23 04:41 22.15076 113.58472 12 ft 19 kts 303°
2026-04-23 04:42 22.15149 113.58351 11 ft 19 kts 303°
2026-04-23 04:42 22.15222 113.58228 11 ft 19 kts 302°
2026-04-23 04:42 22.15300 113.58108 11 ft 19 kts 304°
2026-04-23 04:42 22.15375 113.57986 11 ft 19 kts 304°
2026-04-23 04:43 22.15447 113.57869 12 ft 18 kts 304°
2026-04-23 04:43 22.15519 113.57752 13 ft 18 kts 303°
2026-04-23 04:43 22.15583 113.57645 14 ft 15 kts 303°
2026-04-23 04:43 22.15654 113.57564 15 ft 14 kts 316°
2026-04-23 04:44 22.15703 113.57510 16 ft 2 kts 313°